Hourly Weather Pryvovchans'ke

Today, 8 July, Wednesday

Time Temperature Precipitation Wind Pressure Humidity
00:00 +22°C° 0.3 mm 3 mps 744 mmHg 67%
01:00 +23°C° 0.3 mm 2 mps 744 mmHg 72%
02:00 +21°C° 0.3 mm 2 mps 744 mmHg 77%
03:00 +21°C° 0.2 mm 2 mps 744 mmHg 78%
04:00 +21°C° 0.2 mm 2 mps 744 mmHg 79%
05:00 +21°C° 0.2 mm 2 mps 744 mmHg 80%
06:00 +22°C° 0.1 mm 3 mps 744 mmHg 79%
07:00 +23°C° 0.1 mm 4 mps 745 mmHg 79%
08:00 +25°C° 0.1 mm 5 mps 745 mmHg 78%
09:00 +23°C° 0.2 mm 5 mps 745 mmHg 79%
10:00 +23°C° 0.2 mm 6 mps 746 mmHg 79%
11:00 +22°C° 0.2 mm 7 mps 747 mmHg 79%
12:00 +23°C° 0.5 mm 7 mps 747 mmHg 78%
13:00 +23°C° 0.5 mm 6 mps 747 mmHg 77%
14:00 +23°C° 0.5 mm 6 mps 747 mmHg 75%
15:00 +22°C° 0.1 mm 6 mps 748 mmHg 77%
16:00 +20°C° 0.1 mm 7 mps 748 mmHg 80%
17:00 +18°C° 0.1 mm 7 mps 748 mmHg 82%
18:00 +18°C° 0 mm 7 mps 749 mmHg 82%
19:00 +17°C° 0 mm 7 mps 749 mmHg 82%
20:00 +16°C° 0 mm 6 mps 750 mmHg 82%
21:00 +16°C° 0 mm 6 mps 750 mmHg 82%
22:00 +15°C° 0 mm 5 mps 750 mmHg 82%
23:00 +15°C° 0 mm 5 mps 750 mmHg 83%

Tomorrow, 9 July, Thursday

Time Temperature Precipitation Wind Pressure Humidity
00:00 +15°C° 0 mm 5 mps 751 mmHg 84%
01:00 +14°C° 0 mm 5 mps 751 mmHg 85%
02:00 +14°C° 0 mm 5 mps 751 mmHg 86%
03:00 +14°C° 0 mm 5 mps 751 mmHg 86%
04:00 +14°C° 0 mm 5 mps 752 mmHg 86%
05:00 +14°C° 0 mm 5 mps 752 mmHg 86%
06:00 +16°C° 0 mm 5 mps 752 mmHg 79%
07:00 +17°C° 0 mm 5 mps 753 mmHg 72%
08:00 +20°C° 0 mm 5 mps 753 mmHg 65%
09:00 +21°C° 0 mm 6 mps 753 mmHg 60%
10:00 +22°C° 0 mm 6 mps 753 mmHg 56%
11:00 +24°C° 0 mm 6 mps 753 mmHg 51%
12:00 +24°C° 0 mm 6 mps 753 mmHg 49%
13:00 +26°C° 0 mm 6 mps 753 mmHg 47%
14:00 +26°C° 0 mm 5 mps 753 mmHg 45%
15:00 +26°C° 0 mm 5 mps 753 mmHg 46%
16:00 +26°C° 0 mm 5 mps 753 mmHg 48%
17:00 +25°C° 0 mm 4 mps 754 mmHg 50%
18:00 +23°C° 0 mm 4 mps 754 mmHg 56%
19:00 +21°C° 0 mm 3 mps 754 mmHg 62%
20:00 +19°C° 0 mm 2 mps 755 mmHg 69%
21:00 +19°C° 0 mm 2 mps 755 mmHg 73%
22:00 +18°C° 0 mm 2 mps 755 mmHg 77%
23:00 +17°C° 0 mm 2 mps 756 mmHg 82%

Day after tomorrow, 10 July, Friday

Time Temperature Precipitation Wind Pressure Humidity
00:00 +17°C° 0 mm 2 mps 756 mmHg 85%
01:00 +16°C° 0 mm 2 mps 756 mmHg 88%
02:00 +16°C° 0 mm 2 mps 756 mmHg 91%
03:00 +16°C° 0 mm 2 mps 756 mmHg 91%
04:00 +16°C° 0 mm 2 mps 756 mmHg 90%
05:00 +16°C° 0 mm 2 mps 757 mmHg 90%
06:00 +17°C° 0 mm 2 mps 757 mmHg 81%
07:00 +19°C° 0 mm 2 mps 757 mmHg 72%
08:00 +21°C° 0 mm 3 mps 757 mmHg 63%
09:00 +22°C° 0 mm 3 mps 757 mmHg 57%
10:00 +24°C° 0 mm 3 mps 757 mmHg 52%
11:00 +25°C° 0 mm 3 mps 757 mmHg 46%
12:00 +26°C° 0 mm 3 mps 757 mmHg 44%
13:00 +26°C° 0 mm 3 mps 757 mmHg 43%
14:00 +27°C° 0 mm 3 mps 756 mmHg 41%
15:00 +27°C° 0 mm 3 mps 756 mmHg 42%
16:00 +27°C° 0 mm 3 mps 756 mmHg 43%
17:00 +27°C° 0 mm 3 mps 756 mmHg 44%
18:00 +25°C° 0 mm 3 mps 757 mmHg 50%
19:00 +22°C° 0 mm 3 mps 757 mmHg 56%
20:00 +20°C° 0 mm 2 mps 757 mmHg 62%
21:00 +19°C° 0 mm 2 mps 757 mmHg 64%
22:00 +18°C° 0 mm 2 mps 757 mmHg 67%
23:00 +18°C° 0 mm 2 mps 758 mmHg 69%

11 July, Saturday

Time Temperature Precipitation Wind Pressure Humidity
00:00 +17°C° 0 mm 2 mps 757 mmHg 71%
01:00 +17°C° 0 mm 2 mps 757 mmHg 73%
02:00 +16°C° 0 mm 3 mps 757 mmHg 75%
03:00 +16°C° 0 mm 3 mps 758 mmHg 77%
04:00 +16°C° 0 mm 3 mps 758 mmHg 79%
05:00 +17°C° 0 mm 3 mps 758 mmHg 81%
06:00 +19°C° 0 mm 3 mps 758 mmHg 74%
07:00 +21°C° 0 mm 4 mps 758 mmHg 67%
08:00 +23°C° 0 mm 4 mps 758 mmHg 60%
09:00 +25°C° 0 mm 4 mps 758 mmHg 55%
10:00 +26°C° 0 mm 4 mps 758 mmHg 50%
11:00 +28°C° 0 mm 4 mps 758 mmHg 46%
12:00 +28°C° 0 mm 4 mps 757 mmHg 43%
13:00 +29°C° 0 mm 4 mps 757 mmHg 40%
14:00 +29°C° 0 mm 4 mps 756 mmHg 38%
15:00 +29°C° 0 mm 4 mps 756 mmHg 39%
16:00 +29°C° 0 mm 4 mps 756 mmHg 41%
17:00 +28°C° 0 mm 4 mps 755 mmHg 42%
18:00 +26°C° 0 mm 4 mps 755 mmHg 47%
19:00 +24°C° 0 mm 3 mps 755 mmHg 52%
20:00 +21°C° 0 mm 3 mps 756 mmHg 56%
21:00 +20°C° 0 mm 3 mps 755 mmHg 58%
22:00 +19°C° 0 mm 3 mps 755 mmHg 61%
23:00 +18°C° 0 mm 3 mps 755 mmHg 63%

12 July, Sunday

Time Temperature Precipitation Wind Pressure Humidity
00:00 +18°C° 0 mm 3 mps 755 mmHg 65%
01:00 +17°C° 0 mm 3 mps 755 mmHg 67%
02:00 +17°C° 0 mm 3 mps 755 mmHg 70%
03:00 +17°C° 0 mm 3 mps 754 mmHg 72%
04:00 +17°C° 0 mm 3 mps 754 mmHg 74%
05:00 +17°C° 0 mm 3 mps 754 mmHg 77%
06:00 +19°C° 0 mm 3 mps 754 mmHg 70%
07:00 +22°C° 0 mm 3 mps 754 mmHg 64%
08:00 +25°C° 0 mm 3 mps 754 mmHg 58%
09:00 +26°C° 0 mm 3 mps 754 mmHg 51%
10:00 +28°C° 0 mm 3 mps 754 mmHg 45%
11:00 +29°C° 0 mm 3 mps 754 mmHg 39%
12:00 +29°C° 0 mm 3 mps 753 mmHg 37%
13:00 +30°C° 0 mm 2 mps 753 mmHg 35%
14:00 +30°C° 0 mm 2 mps 753 mmHg 33%
15:00 +30°C° 0 mm 2 mps 752 mmHg 34%
16:00 +30°C° 0 mm 2 mps 752 mmHg 36%
17:00 +30°C° 0 mm 2 mps 752 mmHg 37%
18:00 +28°C° 0 mm 2 mps 752 mmHg 41%
19:00 +26°C° 0 mm 2 mps 752 mmHg 46%
20:00 +24°C° 0 mm 2 mps 752 mmHg 51%
21:00 +23°C° 0 mm 2 mps 751 mmHg 52%
22:00 +21°C° 0 mm 2 mps 751 mmHg 54%
23:00 +20°C° 0 mm 2 mps 751 mmHg 56%

13 July, Monday

Time Temperature Precipitation Wind Pressure Humidity
00:00 +20°C° 0 mm 2 mps 751 mmHg 58%
01:00 +19°C° 0 mm 2 mps 751 mmHg 61%
02:00 +19°C° 0 mm 2 mps 751 mmHg 64%
03:00 +19°C° 0 mm 2 mps 751 mmHg 67%
04:00 +19°C° 0 mm 2 mps 750 mmHg 69%
05:00 +19°C° 0 mm 2 mps 750 mmHg 72%
06:00 +21°C° 0 mm 2 mps 750 mmHg 67%
07:00 +22°C° 0 mm 3 mps 750 mmHg 62%
08:00 +25°C° 0 mm 4 mps 750 mmHg 58%
09:00 +27°C° 0 mm 4 mps 750 mmHg 54%
10:00 +28°C° 0 mm 4 mps 750 mmHg 50%
11:00 +29°C° 0 mm 4 mps 750 mmHg 46%
12:00 +29°C° 0.1 mm 4 mps 750 mmHg 47%
13:00 +29°C° 0.1 mm 5 mps 750 mmHg 48%
14:00 +29°C° 0.1 mm 5 mps 750 mmHg 50%
15:00 +28°C° 0.2 mm 6 mps 750 mmHg 56%
16:00 +26°C° 0.2 mm 7 mps 749 mmHg 62%
17:00 +24°C° 0.2 mm 7 mps 749 mmHg 69%
18:00 +22°C° 0.2 mm 7 mps 749 mmHg 74%
19:00 +20°C° 0.2 mm 6 mps 750 mmHg 79%
20:00 +17°C° 0.2 mm 5 mps 750 mmHg 84%
21:00 +17°C° 0 mm 5 mps 750 mmHg 86%
22:00 +16°C° 0 mm 5 mps 750 mmHg 88%
23:00 +15°C° 0 mm 5 mps 750 mmHg 89%
Show more